Starlink 31783

operational
NORAD ID: 59750 Int'l Des: 2024-090 Owner: SPXS Country: US Constellation: starlink
LEOCIRCULAR

About Starlink 31783

Description loading...

Live Position

Loading 3D Globe...

Upcoming Passes

Altitude History

Altitude vs Time

uPlot chart will show altitude changes over time

Two-Line Element Set

1 59750U 24090W 25352.20376060 -.00000877 00000-0 -22343-4 0 9994
2 59750 43.0041 284.0511 0000956 263.9604 96.1139 15.27574433 90965
Epoch: Dec 18, 2025 • Age: 10 hours

Current Status

Altitude 484.3 km
Velocity 7.63 km/s
Sub-Earth Point 30.94°N, 111.32°E
Launch Date May 13, 2024
Age 1.5 years
Type internet

Technical Details

Classification Payload
Mass 730.00 kg
Dry Mass 700.00 kg
Total Mass 730.00 kg
Length 0.30 m
Diameter 4.10 m
Span 29.00 m
Shape Box + pan
Manufacturer SPXS
Bus Type Starlink V2M
Phase Status In Orbit
Owner/State SPXS/US

Large Constellations

Loading constellations...